When you browse on this site, cookies collect data to enhance your experience and personalize the content and advertising you see.
Visit our Privacy Policy to learn more. By continuing to use the site, you agree to this use of cookies and data.
  • en Suisse
  • Liste des pays
  • À 7 jours
  • Température de l'eau
  • Carte météo
  • Widgets météo
  • user-avatar
    Se connecter

    Météo par heure à Dzhuno

    Ce jour, 7 Juin, Dimanche

    Heure Température Précipitation Vent Pression Humidité
    00:00 +8°C° 1.3 mm 1 m/s 718 mmHg 98%
    01:00 +8°C° 0.7 mm 1 m/s 718 mmHg 98%
    02:00 +7°C° 0.7 mm 2 m/s 718 mmHg 98%
    03:00 +7°C° 0.7 mm 2 m/s 718 mmHg 98%
    04:00 +7°C° 0.7 mm 2 m/s 718 mmHg 98%
    05:00 +7°C° 0.7 mm 2 m/s 718 mmHg 98%
    06:00 +7°C° 0.7 mm 2 m/s 718 mmHg 98%
    07:00 +7°C° 0.8 mm 2 m/s 719 mmHg 97%
    08:00 +7°C° 0.8 mm 2 m/s 719 mmHg 97%
    09:00 +7°C° 0.8 mm 2 m/s 719 mmHg 96%
    10:00 +7°C° 1 mm 3 m/s 719 mmHg 96%
    11:00 +7°C° 1 mm 3 m/s 720 mmHg 96%
    12:00 +7°C° 1 mm 3 m/s 720 mmHg 96%
    13:00 +7°C° 1.3 mm 3 m/s 721 mmHg 96%
    14:00 +5°C° 1.3 mm 3 m/s 721 mmHg 96%
    15:00 +5°C° 1.3 mm 3 m/s 721 mmHg 96%
    16:00 +5°C° 1 mm 3 m/s 722 mmHg 96%
    17:00 +5°C° 1 mm 3 m/s 722 mmHg 96%
    18:00 +5°C° 1 mm 3 m/s 722 mmHg 96%
    19:00 +5°C° 0.6 mm 3 m/s 722 mmHg 96%
    20:00 +5°C° 0.6 mm 3 m/s 722 mmHg 96%
    21:00 +6°C° 0.6 mm 2 m/s 723 mmHg 96%
    22:00 +6°C° 0.2 mm 2 m/s 723 mmHg 96%
    23:00 +6°C° 0.2 mm 2 m/s 723 mmHg 95%

    Demain, 8 Juin, Lundi

    Heure Température Précipitation Vent Pression Humidité
    00:00 +6°C° 0.2 mm 2 m/s 723 mmHg 95%
    01:00 +7°C° 0.2 mm 1 m/s 723 mmHg 95%
    02:00 +6°C° 0.2 mm 1 m/s 723 mmHg 95%
    03:00 +6°C° 0.2 mm 1 m/s 723 mmHg 95%
    04:00 +7°C° 0.1 mm 1 m/s 723 mmHg 94%
    05:00 +7°C° 0.1 mm 1 m/s 723 mmHg 92%
    06:00 +7°C° 0.1 mm 1 m/s 723 mmHg 91%
    07:00 +8°C° 0.2 mm 1 m/s 723 mmHg 88%
    08:00 +8°C° 0.2 mm 1 m/s 723 mmHg 86%
    09:00 +9°C° 0.2 mm 1 m/s 723 mmHg 84%
    10:00 +8°C° 0.2 mm 2 m/s 723 mmHg 83%
    11:00 +8°C° 0.2 mm 2 m/s 723 mmHg 83%
    12:00 +8°C° 0.2 mm 2 m/s 723 mmHg 82%
    13:00 +8°C° 0.2 mm 2 m/s 723 mmHg 82%
    14:00 +9°C° 0.2 mm 1 m/s 723 mmHg 81%
    15:00 +9°C° 0.2 mm 1 m/s 723 mmHg 81%
    16:00 +9°C° 0.1 mm 1 m/s 723 mmHg 81%
    17:00 +9°C° 0.1 mm 1 m/s 723 mmHg 82%
    18:00 +9°C° 0.1 mm 1 m/s 723 mmHg 82%
    19:00 +8°C° 0.1 mm 1 m/s 723 mmHg 85%
    20:00 +8°C° 0.1 mm 1 m/s 723 mmHg 88%
    21:00 +6°C° 0.1 mm 0 m/s 722 mmHg 91%
    22:00 +6°C° 0 mm 0 m/s 722 mmHg 91%
    23:00 +5°C° 0 mm 0 m/s 722 mmHg 91%

    Après-demain, 9 Juin, Mardi

    Heure Température Précipitation Vent Pression Humidité
    00:00 +6°C° 0 mm 1 m/s 723 mmHg 90%
    01:00 +6°C° 0 mm 1 m/s 722 mmHg 90%
    02:00 +5°C° 0 mm 1 m/s 722 mmHg 89%
    03:00 +5°C° 0 mm 1 m/s 722 mmHg 89%
    04:00 +6°C° 0 mm 1 m/s 721 mmHg 86%
    05:00 +7°C° 0 mm 1 m/s 721 mmHg 84%
    06:00 +8°C° 0 mm 1 m/s 721 mmHg 81%
    07:00 +9°C° 0 mm 1 m/s 720 mmHg 78%
    08:00 +10°C° 0 mm 1 m/s 720 mmHg 74%
    09:00 +11°C° 0 mm 1 m/s 720 mmHg 70%
    10:00 +11°C° 0 mm 1 m/s 719 mmHg 67%
    11:00 +12°C° 0 mm 1 m/s 719 mmHg 64%
    12:00 +13°C° 0 mm 1 m/s 719 mmHg 61%
    13:00 +13°C° 0 mm 1 m/s 719 mmHg 59%
    14:00 +13°C° 0 mm 1 m/s 718 mmHg 57%
    15:00 +13°C° 0 mm 1 m/s 718 mmHg 55%
    16:00 +13°C° 0 mm 1 m/s 718 mmHg 55%
    17:00 +13°C° 0 mm 1 m/s 718 mmHg 55%
    18:00 +13°C° 0 mm 1 m/s 718 mmHg 54%
    19:00 +12°C° 0 mm 1 m/s 718 mmHg 56%
    20:00 +11°C° 0 mm 1 m/s 719 mmHg 58%
    21:00 +10°C° 0 mm 1 m/s 719 mmHg 59%
    22:00 +9°C° 0 mm 1 m/s 720 mmHg 60%
    23:00 +9°C° 0 mm 1 m/s 720 mmHg 60%

    10 Juin, Mercredi

    Heure Température Précipitation Vent Pression Humidité
    00:00 +9°C° 0 mm 1 m/s 721 mmHg 61%
    01:00 +9°C° 0 mm 1 m/s 721 mmHg 64%
    02:00 +9°C° 0 mm 1 m/s 721 mmHg 67%
    03:00 +9°C° 0 mm 1 m/s 721 mmHg 70%
    04:00 +10°C° 0 mm 1 m/s 722 mmHg 71%
    05:00 +10°C° 0 mm 1 m/s 722 mmHg 72%
    06:00 +11°C° 0 mm 1 m/s 722 mmHg 72%
    07:00 +12°C° 0 mm 1 m/s 723 mmHg 71%
    08:00 +11°C° 0 mm 0 m/s 723 mmHg 70%
    09:00 +12°C° 0 mm 0 m/s 723 mmHg 68%
    10:00 +13°C° 0 mm 1 m/s 723 mmHg 68%
    11:00 +14°C° 0 mm 1 m/s 724 mmHg 68%
    12:00 +14°C° 0 mm 1 m/s 724 mmHg 68%
    13:00 +14°C° 0 mm 1 m/s 724 mmHg 68%
    14:00 +14°C° 0 mm 1 m/s 724 mmHg 68%
    15:00 +14°C° 0 mm 1 m/s 724 mmHg 67%
    16:00 +13°C° 0 mm 1 m/s 724 mmHg 71%
    17:00 +13°C° 0 mm 1 m/s 724 mmHg 76%
    18:00 +12°C° 0 mm 2 m/s 724 mmHg 80%
    19:00 +11°C° 0 mm 1 m/s 724 mmHg 83%
    20:00 +10°C° 0 mm 1 m/s 724 mmHg 86%
    21:00 +10°C° 0 mm 1 m/s 725 mmHg 89%
    22:00 +8°C° 0 mm 0 m/s 725 mmHg 89%
    23:00 +8°C° 0 mm 0 m/s 725 mmHg 90%

    11 Juin, Jeudi

    Heure Température Précipitation Vent Pression Humidité
    00:00 +8°C° 0 mm 0 m/s 726 mmHg 90%
    01:00 +8°C° 0 mm 0 m/s 726 mmHg 89%
    02:00 +8°C° 0 mm 0 m/s 726 mmHg 88%
    03:00 +8°C° 0 mm 0 m/s 726 mmHg 88%
    04:00 +9°C° 0 mm 0 m/s 727 mmHg 86%
    05:00 +9°C° 0 mm 0 m/s 727 mmHg 85%
    06:00 +10°C° 0 mm 0 m/s 727 mmHg 83%
    07:00 +11°C° 0 mm 0 m/s 727 mmHg 79%
    08:00 +12°C° 0 mm 0 m/s 727 mmHg 75%
    09:00 +13°C° 0 mm 0 m/s 727 mmHg 70%
    10:00 +13°C° 0 mm 0 m/s 727 mmHg 69%
    11:00 +13°C° 0 mm 0 m/s 727 mmHg 68%
    12:00 +15°C° 0 mm 1 m/s 727 mmHg 67%
    13:00 +15°C° 0 mm 1 m/s 727 mmHg 67%
    14:00 +15°C° 0 mm 1 m/s 727 mmHg 66%
    15:00 +15°C° 0 mm 1 m/s 727 mmHg 66%
    16:00 +15°C° 0 mm 1 m/s 726 mmHg 67%
    17:00 +14°C° 0 mm 1 m/s 726 mmHg 68%
    18:00 +14°C° 0 mm 1 m/s 726 mmHg 69%
    19:00 +13°C° 0 mm 1 m/s 726 mmHg 72%
    20:00 +12°C° 0 mm 1 m/s 726 mmHg 75%
    21:00 +11°C° 0 mm 1 m/s 726 mmHg 79%
    22:00 +11°C° 0 mm 1 m/s 726 mmHg 79%
    23:00 +11°C° 0 mm 1 m/s 726 mmHg 78%

    12 Juin, Vendredi

    Heure Température Précipitation Vent Pression Humidité
    00:00 +11°C° 0 mm 1 m/s 726 mmHg 78%
    01:00 +10°C° 0 mm 1 m/s 725 mmHg 79%
    02:00 +10°C° 0 mm 1 m/s 725 mmHg 79%
    03:00 +10°C° 0 mm 1 m/s 725 mmHg 79%
    04:00 +11°C° 0 mm 1 m/s 725 mmHg 79%
    05:00 +12°C° 0 mm 1 m/s 725 mmHg 78%
    06:00 +12°C° 0 mm 1 m/s 724 mmHg 77%
    07:00 +13°C° 0 mm 2 m/s 724 mmHg 74%
    08:00 +14°C° 0 mm 2 m/s 724 mmHg 71%
    09:00 +15°C° 0 mm 2 m/s 724 mmHg 68%
    10:00 +16°C° 0 mm 2 m/s 723 mmHg 66%
    11:00 +16°C° 0 mm 2 m/s 723 mmHg 65%
    12:00 +17°C° 0 mm 2 m/s 723 mmHg 64%
    13:00 +17°C° 0 mm 2 m/s 722 mmHg 64%
    14:00 +17°C° 0 mm 2 m/s 722 mmHg 65%
    15:00 +18°C° 0 mm 2 m/s 722 mmHg 65%
    16:00 +17°C° 0 mm 2 m/s 721 mmHg 67%
    17:00 +17°C° 0 mm 2 m/s 721 mmHg 69%
    18:00 +16°C° 0 mm 1 m/s 721 mmHg 71%
    19:00 +15°C° 0 mm 1 m/s 720 mmHg 72%
    20:00 +15°C° 0 mm 1 m/s 720 mmHg 73%
    21:00 +14°C° 0 mm 1 m/s 720 mmHg 73%
    22:00 +13°C° 0 mm 1 m/s 720 mmHg 72%
    23:00 +13°C° 0 mm 1 m/s 720 mmHg 70%
    Voir plus